METAR Formatted Surface Weather Observation
Issued by NWS

Home | Current Version | Previous Version | Text Only | Print | Product List | Glossary On
Versions: 1 2 3 4 5 6 7 8 9 10 11 12 13 14 15 16 17 18 19 20 21 22 23 24 25 26 27 28 29 30 31 32 33 34 35 36 37 38 39 40 41 42 43 44 45 46 47 48 49 50
951
SAUS44 KLZK 040557 COR
MTRMWT
METAR KMWT 040553Z AUTO 11004KT 4SM -RA BR OVC009 07/06 A3002 RMK
AO2 RAB47 CIG 006V011 SLP169 P0000 60009 T00720061 10078 20072
400890072 56008



USA.gov is the U.S. government's official web portal to all federal, state and local government web resources and services.